Regional Weather Roundup
Issued by NWS

Home | Current Version | Previous Version | Text Only | Print | Product List | Glossary Off
Versions: 1 2 3 4 5 6 7 8 9 10 11 12 13 14 15 16 17 18 19 20 21 22 23 24 25 26 27 28 29 30 31 32 33 34 35 36 37 38 39 40 41 42 43 44 45 46 47 48 49 50

936
ASUS43 KLSX 250957
RWRMO

WEATHER SUMMARY FOR MISSOURI
NATIONAL WEATHER SERVICE SPRINGFIELD MO
400 AM CST SAT FEB 25 2017

NOTE: "FAIR" INDICATES FEW OR NO CLOUDS BELOW 12,000 FEET WITH NO
       SIGNIFICANT WEATHER AND/OR OBSTRUCTIONS TO VISIBILITY.
       CURRENT SKY AND/OR WEATHER CONDITIONS ARE NOT AVAILABLE FOR
       CHILLICOTHE AND FARMINGTON.

MOZ001>031-035>038-043-044-053-054-251100-
...NORTHERN AND WESTERN MISSOURI...

CITY           SKY/WX    TMP DP  RH WIND       PRES   REMARKS
KANSAS CTY INT MOCLDY    24  16  71 N9        30.07R WCI  14
LEE`S SUMMIT   PTCLDY    26  16  65 NW17G23   30.07S WCI  13
ST JOSEPH      CLEAR     22  16  78 N12       30.10R WCI  10
CHILLICOTHE      N/A     23  15  71 NW10      30.06R WCI  12

$$
MOZ066>068-077>081-088>096-101>105-251100-
...SOUTHWEST MISSOURI...

CITY           SKY/WX    TMP DP  RH WIND       PRES   REMARKS
SPRINGFIELD    CLEAR     24  16  71 NW10      30.06F WCI  14
JOPLIN         CLEAR     23  17  78 W8        30.14F WCI  14

$$
MOZ032>034-039>042-045>050-055>058-069>072-251100-
...CENTRAL MISSOURI...

CITY           SKY/WX    TMP DP  RH WIND       PRES   REMARKS
COLUMBIA       NOT AVBL
JEFFERSON CITY CLOUDY    27  16  63 W17G26    30.03R WCI  14
ROLLA          CLOUDY    25  16  68 W20G33    29.98R WCI  11
SEDALIA        CLEAR     25  16  68 NW14      30.06R WCI  13
WARRENSBURG    CLOUDY    28  18  64 NW12G17   30.08R WCI  18

$$
MOZ051-052-059>065-251100-
...EAST CENTRAL MISSOURI...

CITY           SKY/WX    TMP DP  RH WIND       PRES   REMARKS
ST LOUIS INTL  FLURRIES  30  17  58 W18G32    29.93R WCI  18

$$
MOZ072>076-082>087-097>100-106>115-251100-
...SOUTH CENTRAL AND SOUTHEAST MISSOURI...

CITY           SKY/WX    TMP DP  RH WIND       PRES   REMARKS
CAPE GIRARDEAU CLEAR     32  18  56 NW17G23   29.94R WCI  21
POPLAR BLUFF   CLEAR     34  21  59 NW9       29.97R WCI  27
WEST PLAINS    MOCLDY    28  17  63 NW14G30   30.01R WCI  17

$$



USA.gov is the U.S. government's official web portal to all federal, state and local government web resources and services.